Regional Weather Roundup
Issued by NWS Upton, NY

Current Version | Previous Version | Text Only | Print | Product List | Glossary On
Versions: 1 2 3 4 5 6 7 8 9 10 11 12 13 14 15 16 17 18 19 20 21 22 23 24 25 26 27 28 29 30 31 32 33 34 35 36 37 38 39 40 41 42 43 44 45 46 47 48 49 50
000 ASUS41 KOKX 222208 RWROKX REGIONAL WEATHER ROUNDUP NATIONAL WEATHER SERVICE NEW YORK NY 600 PM EDT FRI MAY 22 2015 NOTE: "FAIR" INDICATES FEW OR NO CLOUDS BELOW 12,000 FEET WITH NO SIGNIFICANT WEATHER AND/OR OBSTRUCTIONS TO VISIBILITY. NYZ071-072-176-178-NJZ106-104-222300- NEW YORK CITY METRO AREA CITY SKY/WX TMP DP RH WIND PRES REMARKS CENTRAL PARK PTSUNNY 70 38 31 W8G18 29.98R LAGUARDIA APRT MOSUNNY 70 40 33 NW13G29 29.94S KENNEDY INTL PTSUNNY 73 36 25 NW22 29.96R NEWARK/LIBERTY MOSUNNY 73 40 30 W17G26 29.96R BRNX BOT. GARD N/A 70 37 30 NW7 29.96S TETERBORO MOSUNNY 70 37 29 NW9G22 29.94R $$ NYZ177-179-078>081-222300- LONG ISLAND NEW YORK CITY SKY/WX TMP DP RH WIND PRES REMARKS FARMINGDALE MOSUNNY 71 40 32 NW14G23 29.94S ISLIP PTSUNNY 70 39 32 NW15 29.92R SHIRLEY CLOUDY 71 39 31 W8 29.94R WESTHAMPTON PTSUNNY 72 41 32 W14G21 29.94S MONTAUK POINT N/A 68 46 45 VRB7 29.92R $$ NYZ052-065-067-222300- HUDSON VALLEY CITY SKY/WX TMP DP RH WIND PRES REMARKS WHITE PLAINS MOSUNNY 67 37 33 NW10G21 29.94R NEWBURGH NOT AVBL MONTGOMERY SUNNY 69 35 28 NW14G21 29.96R POUGHKEEPSIE SUNNY 69 29 22 NW13G24 29.95R ALBANY MOSUNNY 62 27 26 NW17G29 30.00R $$ NJZ001-105-106-008-010-013-015-019>022-104-222300- NEW JERSEY CITY SKY/WX TMP DP RH WIND PRES REMARKS NEWARK/LIBERTY MOSUNNY 73 40 30 W17G26 29.96R TETERBORO MOSUNNY 70 37 29 NW9G22 29.94R CALDWELL PTSUNNY 71 38 29 W16G22 29.96S MORRISTOWN PTSUNNY 72 43 35 MISG 29.97R SOMERVILLE PTSUNNY 65 43 44 W5 29.97R SUSSEX MOSUNNY 69 35 28 NW9 29.98R ANDOVER N/A 67 42 40 MISG 29.98R TRENTON CLOUDY 67 44 43 NW15G29 29.99R MILLVILLE MOSUNNY 72 44 36 W16G24 30.02S ATLANTIC CITY SUNNY 72 42 34 W16 30.01R WRIGHTSTOWN MOSUNNY 74 37 26 W18G28 29.95R TOMS RIVER MOSUNNY N/A N/A N/A W20G31 29.97F BELMAR PTSUNNY 72 41 33 W15G23 29.97R $$ PAZ047>061-062-071-222300- EASTERN PENNSYLVANIA CITY SKY/WX TMP DP RH WIND PRES REMARKS PHILADELPHIA MOSUNNY 77 36 22 W25G31 30.00S ALLENTOWN MOSUNNY 66 49 54 W7 30.00F SCRANTON PTSUNNY 69 25 19 NW17G25 29.99R $$ CTZ002-004>006-009-010-012-RIZ004-006-007-MAZ004-011-015-222300- SOUTHERN NEW ENGLAND IN CT CITY SKY/WX TMP DP RH WIND PRES REMARKS BRADLEY INTL MOSUNNY 69 29 22 NW23 29.93R HARTFORD SUNNY 69 32 25 NW12G24 29.92R DANBURY MOSUNNY 68 30 24 NW14G23 29.95R WTRBRY/OXFORD MOSUNNY 66 28 24 NW15G28 29.95S BRIDGEPORT PTSUNNY 72 34 24 NW15G24 29.92R MERIDEN SUNNY 72 31 22 NW13 29.92R NEW HAVEN MOSUNNY 70 34 26 NW13G20 29.92R CHESTER FAIR 70 27 19 W10G24 29.92R GROTON SUNNY 72 32 23 W15G25 29.89R WILLIMANTIC SUNNY 70 31 23 NW16G29 29.91R IN RI CITY SKY/WX TMP DP RH WIND PRES REMARKS PROVIDENCE MOSUNNY 72 30 21 NW14G23 29.88R BLOCK ISLAND MOSUNNY 61 46 59 SW18G28 29.91S WESTERLY MOSUNNY 66 45 46 SW7 29.89S IN MA CITY SKY/WX TMP DP RH WIND PRES REMARKS BOSTON MOSUNNY 70 29 21 W21G31 29.85R WORCESTER SUNNY 64 24 21 W22G33 29.91R WESTFIELD NOT AVBL PROVINCETOWN MOSUNNY 66 46 48 W7 29.84R NANTUCKET SUNNY 60 48 64 SW18 29.89R $$ ANZ330-335-338-340-345-350-353-355-222300- COASTAL MARINE OBSERVATIONS STATION/POSITION TIME SKY/WX TEMP WIND PRES VSBY WAVE AIR SEA DIR/SP/G HT/PER (UTC) (F) (DEG/KT/KT) (MB) (MI) (FT/S) NY HARB ENTRANCE 2050 65 57 290/ 12/ 16 1013.7 2/ 3 4S FIRE IS 2103 54 N/A 3/ 4 20S FIRE ISLAND 2150 59 56 230/ 8/ 10 1014.4 2/ 8 GREAT SOUTH BAY 2100 68 64 280/ 17/ 21 N/A 23SW MTP 2150 58 54 240/ 16/ 17 1013.3 3/ 4 HUDSON CANYON NOT AVBL KINGS POINT 2100 68 54 310/ 17/ 20 1013.1 CENTRAL LI SOUND 2145 60 53 270/ 10/ 10 N/A EASTERN LI SOUND 2100 57 250/ 14/ 17 N/A ROBBINS REEF 2100 69 310/ 21/ 27 1012.8 $$ >>>>>>>>>>>>>>>>>>>>>>>>>>>> KEY <<<<<<<<<<<<<<<<<<<<<<<<<<< > < > SKY/WX - SKY CONDITION/PRESENT WEATHER < > TMP - TEMPERATURE IN FAHRENHEIT < > DP - DEWPOINT IN FAHRENHEIT < > RH - RELATIVE HUMIDITY IN PERCENT < > WIND - DIRECTION AND SPEED IN MPH < > PRES - MEAN SEA LEVEL PRESSURE IN INCHES OF HG < > WCI - WIND CHILL INDEX < > VSB - VISIBILITY IN MILES < > HX - HEAT INDEX < > TC - TEMPERATURE IN CELSIUS < > VRB - VARIABLE WIND DIRECTION < > < >>>>>>>>>>>>>>>>>>>>>>>>>>>> KEY <<<<<<<<<<<<<<<<<<<<<<<<<<<

USA.gov is the U.S. government's official web portal to all federal, state and local government web resources and services.